Time,TemperatureF,DewpointF,PressureIn,WindDirection,WindDirectionDegrees,WindSpeedMPH,WindSpeedGustMPH,Humidity,HourlyPrecipIn,Conditions,Clouds,dailyrainin,SoftwareType,DateUTC
2013-07-06 00:02:00,51.0,-99.9,29.85,SE,132,4.0,-999.0,-999,-99.99,,,-99.99,,2013-07-06 08:02:00,
2013-07-06 00:12:00,51.0,-99.9,29.85,SE,132,4.0,-999.0,-999,-99.99,,,-99.99,,2013-07-06 08:12:00,
2013-07-06 00:22:00,51.0,-99.9,29.85,SE,132,4.0,-999.0,-999,-99.99,,,-99.99,,2013-07-06 08:22:00,
2013-07-06 00:54:00,50.0,-99.9,29.85,SE,132,5.0,-999.0,-999,-99.99,,,-99.99,,2013-07-06 08:54:00,
2013-07-06 01:02:00,50.0,-99.9,29.85,SE,132,5.0,-999.0,-999,-99.99,,,-99.99,,2013-07-06 09:02:00,
2013-07-06 01:11:00,50.0,-99.9,29.85,SE,132,5.0,-999.0,-999,-99.99,,,-99.99,,2013-07-06 09:11:00,
2013-07-06 01:22:00,50.0,-99.9,29.85,SE,132,3.0,-999.0,-999,-99.99,,,-99.99,,2013-07-06 09:22:00,
2013-07-06 01:34:00,50.0,-99.9,29.85,SE,132,3.0,-999.0,-999,-99.99,,,-99.99,,2013-07-06 09:34:00,
2013-07-06 01:43:00,50.0,-99.9,29.85,SE,132,3.0,-999.0,-999,-99.99,,,-99.99,,2013-07-06 09:43:00,
2013-07-06 01:53:00,50.0,-99.9,29.85,SE,132,5.0,-999.0,-999,-99.99,,,-99.99,,2013-07-06 09:53:00,
2013-07-06 02:02:00,50.0,-99.9,29.85,SE,132,5.0,-999.0,-999,-99.99,,,-99.99,,2013-07-06 10:02:00,
2013-07-06 02:12:00,50.0,-99.9,29.85,SE,132,5.0,-999.0,-999,-99.99,,,-99.99,,2013-07-06 10:12:00,
2013-07-06 02:22:00,50.0,-99.9,29.85,SE,132,5.0,-999.0,-999,-99.99,,,-99.99,,2013-07-06 10:22:00,
2013-07-06 02:33:00,50.0,-99.9,29.85,SE,132,5.0,-999.0,-999,-99.99,,,-99.99,,2013-07-06 10:33:00,
2013-07-06 02:43:00,50.0,-99.9,29.85,SE,132,5.0,-999.0,-999,-99.99,,,-99.99,,2013-07-06 10:43:00,
2013-07-06 02:53:00,49.0,-99.9,29.85,ESE,120,7.0,-999.0,-999,-99.99,,,-99.99,,2013-07-06 10:53:00,
2013-07-06 03:01:00,49.0,-99.9,29.85,ESE,120,7.0,-999.0,-999,-99.99,,,-99.99,,2013-07-06 11:01:00,
2013-07-06 03:11:00,49.0,-99.9,29.85,ESE,120,7.0,-999.0,-999,-99.99,,,-99.99,,2013-07-06 11:11:00,
2013-07-06 03:22:00,48.0,-99.9,29.84,ESE,108,9.0,-999.0,-999,-99.99,,,-99.99,,2013-07-06 11:22:00,
2013-07-06 03:33:00,48.0,-99.9,29.84,ESE,108,9.0,-999.0,-999,-99.99,,,-99.99,,2013-07-06 11:33:00,
2013-07-06 03:43:00,48.0,-99.9,29.84,ESE,108,9.0,-999.0,-999,-99.99,,,-99.99,,2013-07-06 11:43:00,
2013-07-06 03:53:00,48.0,-99.9,29.85,ESE,105,7.0,-999.0,-999,-99.99,,,-99.99,,2013-07-06 11:53:00,
2013-07-06 04:01:00,48.0,-99.9,29.85,ESE,105,7.0,-999.0,-999,-99.99,,,-99.99,,2013-07-06 12:01:00,
2013-07-06 04:12:00,48.0,-99.9,29.85,ESE,105,7.0,-999.0,-999,-99.99,,,-99.99,,2013-07-06 12:12:00,
2013-07-06 04:22:00,48.0,-99.9,29.84,ESE,109,8.0,-999.0,-999,-99.99,,,-99.99,,2013-07-06 12:22:00,
2013-07-06 04:33:00,48.0,-99.9,29.84,ESE,109,8.0,-999.0,-999,-99.99,,,-99.99,,2013-07-06 12:33:00,
2013-07-06 04:43:00,48.0,-99.9,29.84,ESE,109,8.0,-999.0,-999,-99.99,,,-99.99,,2013-07-06 12:43:00,
2013-07-06 04:52:00,48.0,-99.9,29.84,ESE,109,8.0,-999.0,-999,-99.99,,,-99.99,,2013-07-06 12:52:00,
2013-07-06 06:34:00,49.0,-99.9,29.82,ESE,118,7.0,-999.0,-999,-99.99,,,-99.99,,2013-07-06 14:34:00,
2013-07-06 06:43:00,49.0,-99.9,29.82,ESE,118,7.0,-999.0,-999,-99.99,,,-99.99,,2013-07-06 14:43:00,
2013-07-06 06:53:00,49.0,-99.9,29.82,ESE,118,7.0,-999.0,-999,-99.99,,,-99.99,,2013-07-06 14:53:00,
2013-07-06 07:02:00,49.0,-99.9,29.82,ESE,118,7.0,-999.0,-999,-99.99,,,-99.99,,2013-07-06 15:02:00,
2013-07-06 07:22:00,51.0,-99.9,29.80,ESE,111,6.0,-999.0,-999,-99.99,,,-99.99,,2013-07-06 15:22:00,
2013-07-06 07:34:00,51.0,-99.9,29.80,ESE,111,6.0,-999.0,-999,-99.99,,,-99.99,,2013-07-06 15:34:00,
2013-07-06 07:43:00,51.0,-99.9,29.80,ESE,111,6.0,-999.0,-999,-99.99,,,-99.99,,2013-07-06 15:43:00,
2013-07-06 07:53:00,52.0,-99.9,29.82,ESE,102,7.0,-999.0,-999,-99.99,,,-99.99,,2013-07-06 15:53:00,
2013-07-06 08:09:00,52.0,-99.9,29.82,ESE,102,7.0,-999.0,-999,-99.99,,,-99.99,,2013-07-06 16:09:00,
2013-07-06 08:16:00,52.0,-99.9,29.82,ESE,102,7.0,-999.0,-999,-99.99,,,-99.99,,2013-07-06 16:16:00,
2013-07-06 08:30:00,52.0,-99.9,29.81,East,91,8.0,-999.0,-999,-99.99,,,-99.99,,2013-07-06 16:30:00,
2013-07-06 08:50:00,52.0,-99.9,29.81,East,91,8.0,-999.0,-999,-99.99,,,-99.99,,2013-07-06 16:50:00,
2013-07-06 09:02:00,52.0,-99.9,29.81,East,91,8.0,-999.0,-999,-99.99,,,-99.99,,2013-07-06 17:02:00,
2013-07-06 09:04:00,56.0,-99.9,29.81,SE,126,7.0,-999.0,-999,-99.99,,,-99.99,,2013-07-06 17:04:00,
2013-07-06 09:13:00,54.0,-99.9,29.82,ESE,103,7.0,-999.0,-999,-99.99,,,-99.99,,2013-07-06 17:13:00,
2013-07-06 09:19:00,54.0,-99.9,29.82,ESE,103,7.0,-999.0,-999,-99.99,,,-99.99,,2013-07-06 17:19:00,
2013-07-06 09:27:00,54.0,-99.9,29.82,ESE,103,7.0,-999.0,-999,-99.99,,,-99.99,,2013-07-06 17:27:00,
2013-07-06 09:36:00,56.0,-99.9,29.81,SE,126,7.0,-999.0,-999,-99.99,,,-99.99,,2013-07-06 17:36:00,
2013-07-06 09:45:00,56.0,-99.9,29.81,SE,126,7.0,-999.0,-999,-99.99,,,-99.99,,2013-07-06 17:45:00,
2013-07-06 10:02:00,56.0,-99.9,29.81,SE,126,7.0,-999.0,-999,-99.99,,,-99.99,,2013-07-06 18:02:00,
2013-07-06 12:04:00,60.0,-99.9,29.80,SE,126,4.0,-999.0,-999,-99.99,,,-99.99,,2013-07-06 20:04:00,
2013-07-06 12:36:00,60.0,-99.9,29.80,SE,126,4.0,-999.0,-999,-99.99,,,-99.99,,2013-07-06 20:36:00,
2013-07-06 12:53:00,60.0,-99.9,29.80,SE,126,4.0,-999.0,-999,-99.99,,,-99.99,,2013-07-06 20:53:00,
2013-07-06 13:02:00,60.0,-99.9,29.80,SE,126,4.0,-999.0,-999,-99.99,,,-99.99,,2013-07-06 21:02:00,
2013-07-06 22:00:00,60.0,-99.9,29.67,SSE,162,3.0,-999.0,-999,-99.99,,,-99.99,,2013-07-07 06:00:00,
2013-07-06 22:22:00,60.0,-99.9,29.67,SSE,162,3.0,-999.0,-999,-99.99,,,-99.99,,2013-07-07 06:22:00,
2013-07-06 22:32:00,60.0,-99.9,29.67,SSE,162,3.0,-999.0,-999,-99.99,,,-99.99,,2013-07-07 06:32:00,
2013-07-06 22:43:00,60.0,-99.9,29.67,SSE,162,3.0,-999.0,-999,-99.99,,,-99.99,,2013-07-07 06:43:00,
2013-07-06 22:52:00,60.0,-99.9,29.67,SSE,162,3.0,-999.0,-999,-99.99,,,-99.99,,2013-07-07 06:52:00,